DLH151 EDLW-EDDH

Flight info

Callsign DLH151
Flight time 0h 39m
Altitude 23000
Route OSN8Q OSN DCT BASUM DCT MUBZI DCT RIBSO RIBSO7A
Aircraft A20N/M-SDE2E3FGHIRWXY/LB1

Departure

Time 2026-05-06 18:24
Airport Dortmund Airport (EDLW)

Arrival

Time 2026-05-06 19:04
Airport Hamburg Helmut Schmidt Airport (EDDH)
Time Latitude Longitude Altitude Speed Heading
2026-05-06 17:58 51.51579 7.61308 434 ft 0 kts 149°
2026-05-06 18:08 51.51583 7.61305 434 ft 4 kts 149°
2026-05-06 18:08 51.51614 7.61268 420 ft 7 kts 132°
2026-05-06 18:08 51.51636 7.61236 421 ft 2 kts 191°
2026-05-06 18:08 51.51645 7.61243 418 ft 0 kts 242°
2026-05-06 18:11 51.51642 7.61233 422 ft 3 kts 242°
2026-05-06 18:12 51.51625 7.61178 420 ft 8 kts 243°
2026-05-06 18:12 51.51593 7.61084 424 ft 11 kts 243°
2026-05-06 18:12 51.51555 7.60959 426 ft 13 kts 243°
2026-05-06 18:12 51.51506 7.60811 427 ft 17 kts 240°
2026-05-06 18:13 51.51468 7.60706 422 ft 1 kts 239°
2026-05-06 18:13 51.51428 7.60587 420 ft 7 kts 242°
2026-05-06 18:13 51.51422 7.60571 430 ft 0 kts 241°
2026-05-06 18:21 51.51422 7.60570 430 ft 0 kts 241°
2026-05-06 18:21 51.51378 7.60446 428 ft 26 kts 240°
2026-05-06 18:22 51.51426 7.60250 419 ft 23 kts 343°
2026-05-06 18:22 51.51519 7.60344 426 ft 14 kts 76°
2026-05-06 18:22 51.51527 7.60364 417 ft 0 kts 58°
2026-05-06 18:24 51.51571 7.60481 413 ft 43 kts 59°
2026-05-06 18:24 51.51866 7.61315 417 ft 125 kts 60°
2026-05-06 18:24 51.52398 7.62776 679 ft 164 kts 57°
2026-05-06 18:24 51.52984 7.64415 1367 ft 176 kts 58°
2026-05-06 18:25 51.53614 7.66279 1916 ft 204 kts 60°
2026-05-06 18:25 51.54323 7.68373 2739 ft 221 kts 59°
2026-05-06 18:25 51.55097 7.70599 3357 ft 241 kts 59°
2026-05-06 18:25 51.55952 7.73019 4127 ft 253 kts 59°
2026-05-06 18:26 51.56839 7.75518 4737 ft 261 kts 58°
2026-05-06 18:26 51.57742 7.78059 4943 ft 262 kts 58°
2026-05-06 18:26 51.58650 7.80612 5003 ft 262 kts 58°
2026-05-06 18:26 51.59557 7.83157 5011 ft 263 kts 58°
2026-05-06 18:27 51.60479 7.85722 5325 ft 267 kts 55°
2026-05-06 18:27 51.61777 7.87830 6214 ft 265 kts 31°
2026-05-06 18:27 51.63486 7.88878 7168 ft 266 kts
2026-05-06 18:27 51.65315 7.88585 8079 ft 270 kts 340°
2026-05-06 18:28 51.67040 7.87333 8994 ft 274 kts 343°
2026-05-06 18:28 51.68875 7.87061 9876 ft 276 kts
2026-05-06 18:28 51.70726 7.88078 10483 ft 293 kts 26°
2026-05-06 18:28 51.72543 7.89856 10785 ft 318 kts 32°
2026-05-06 18:29 51.74435 7.91815 11244 ft 333 kts 30°
2026-05-06 18:29 51.76443 7.93743 12037 ft 338 kts 28°
2026-05-06 18:29 51.78518 7.95589 12822 ft 343 kts 26°
2026-05-06 18:29 51.80511 7.97279 13555 ft 348 kts 26°
2026-05-06 18:30 51.82722 7.99110 13918 ft 366 kts 25°
2026-05-06 18:30 51.85051 8.01023 14113 ft 385 kts 25°
2026-05-06 18:30 51.87458 8.03000 14305 ft 403 kts 25°
2026-05-06 18:30 51.89976 8.05076 14607 ft 416 kts 26°
2026-05-06 18:31 51.92565 8.07218 15210 ft 420 kts 26°
2026-05-06 18:31 51.95177 8.09384 15800 ft 424 kts 26°
2026-05-06 18:31 51.97823 8.11581 16380 ft 429 kts 26°
2026-05-06 18:31 52.00500 8.13805 16940 ft 434 kts 26°
2026-05-06 18:32 52.03195 8.16049 17500 ft 438 kts 26°
2026-05-06 18:32 52.05898 8.18301 18035 ft 443 kts 26°
2026-05-06 18:32 52.08656 8.20601 18526 ft 448 kts 26°
2026-05-06 18:32 52.11434 8.22921 19053 ft 450 kts 26°
2026-05-06 18:33 52.14203 8.25237 19575 ft 453 kts 26°
2026-05-06 18:33 52.17013 8.27592 20083 ft 456 kts 26°
2026-05-06 18:33 52.19846 8.29969 20570 ft 460 kts 26°
2026-05-06 18:33 52.22702 8.32369 21065 ft 463 kts 26°
2026-05-06 18:34 52.25573 8.34785 21545 ft 466 kts 26°
2026-05-06 18:34 52.28465 8.37223 22026 ft 469 kts 26°
2026-05-06 18:34 52.31374 8.39678 22484 ft 472 kts 26°
2026-05-06 18:34 52.34079 8.41964 22792 ft 474 kts 26°
2026-05-06 18:35 52.37017 8.44451 22870 ft 475 kts 26°
2026-05-06 18:35 52.39951 8.46939 22872 ft 475 kts 26°
2026-05-06 18:35 52.42887 8.49431 22875 ft 475 kts 26°
2026-05-06 18:35 52.45815 8.51921 22876 ft 475 kts 26°
2026-05-06 18:36 52.48752 8.54422 22879 ft 475 kts 26°
2026-05-06 18:36 52.51682 8.56920 22873 ft 474 kts 26°
2026-05-06 18:36 52.54619 8.59429 22876 ft 474 kts 26°
2026-05-06 18:36 52.57507 8.61900 22876 ft 474 kts 26°
2026-05-06 18:37 52.60353 8.64337 22875 ft 474 kts 26°
2026-05-06 18:37 52.63281 8.66850 22877 ft 475 kts 26°
2026-05-06 18:37 52.66233 8.69282 22873 ft 473 kts 21°
2026-05-06 18:37 52.69359 8.70899 22876 ft 472 kts 12°
2026-05-06 18:38 52.72576 8.71966 22879 ft 471 kts
2026-05-06 18:38 52.75805 8.72931 22879 ft 471 kts
2026-05-06 18:38 52.79026 8.73937 22882 ft 471 kts
2026-05-06 18:38 52.82235 8.75006 22886 ft 471 kts 10°
2026-05-06 18:39 52.85438 8.76120 22678 ft 467 kts 11°
2026-05-06 18:39 52.88610 8.77249 22100 ft 463 kts 11°
2026-05-06 18:39 52.91711 8.78366 21863 ft 448 kts 11°
2026-05-06 18:40 52.97579 8.80488 21400 ft 417 kts 11°
2026-05-06 18:40 53.00397 8.81507 20798 ft 412 kts 11°
2026-05-06 18:40 53.03155 8.82502 20164 ft 409 kts 11°
2026-05-06 18:40 53.05926 8.83504 19558 ft 406 kts 11°
2026-05-06 18:41 53.08673 8.84498 18955 ft 402 kts 11°
2026-05-06 18:41 53.11405 8.85490 18370 ft 399 kts 11°
2026-05-06 18:41 53.14103 8.86470 17722 ft 396 kts 11°
2026-05-06 18:41 53.16776 8.87443 17142 ft 391 kts 11°
2026-05-06 18:42 53.19418 8.88405 16556 ft 386 kts 11°
2026-05-06 18:42 53.22027 8.89357 15978 ft 381 kts 11°
2026-05-06 18:42 53.24602 8.90297 15414 ft 377 kts 11°
2026-05-06 18:42 53.27153 8.91229 14853 ft 372 kts 11°
2026-05-06 18:43 53.29672 8.92151 14313 ft 369 kts 11°
2026-05-06 18:43 53.32163 8.93063 13783 ft 365 kts 12°
2026-05-06 18:43 53.34628 8.93967 13201 ft 361 kts 12°
2026-05-06 18:43 53.37076 8.94865 12601 ft 358 kts 12°
2026-05-06 18:44 53.39269 8.96043 12063 ft 355 kts 25°
2026-05-06 18:44 53.41438 8.97933 11506 ft 352 kts 27°
2026-05-06 18:44 53.43596 8.99817 11069 ft 346 kts 27°
2026-05-06 18:44 53.45733 9.01699 10922 ft 349 kts 27°
2026-05-06 18:45 53.47880 9.03612 10897 ft 349 kts 27°
2026-05-06 18:45 53.50021 9.05536 10894 ft 349 kts 27°
2026-05-06 18:45 53.52167 9.07473 10895 ft 349 kts 27°
2026-05-06 18:45 53.54309 9.09411 10892 ft 350 kts 27°
2026-05-06 18:46 53.56452 9.11352 10890 ft 350 kts 27°
2026-05-06 18:46 53.58599 9.13300 10891 ft 350 kts 27°
2026-05-06 18:46 53.60748 9.15252 10891 ft 351 kts 27°
2026-05-06 18:46 53.62895 9.17204 10893 ft 351 kts 27°
2026-05-06 18:47 53.65016 9.19136 10892 ft 351 kts 27°
2026-05-06 18:47 53.67155 9.21084 10753 ft 348 kts 27°
2026-05-06 18:47 53.69281 9.23023 10378 ft 346 kts 28°
2026-05-06 18:47 53.71385 9.24945 9944 ft 341 kts 28°
2026-05-06 18:48 53.73427 9.26813 9761 ft 323 kts 28°
2026-05-06 18:48 53.75345 9.28570 9559 ft 303 kts 28°
2026-05-06 18:48 53.77154 9.30228 9431 ft 289 kts 28°
2026-05-06 18:48 53.78879 9.31811 9310 ft 276 kts 28°
2026-05-06 18:49 53.80530 9.33327 9200 ft 264 kts 28°
2026-05-06 18:49 53.82106 9.34774 9086 ft 252 kts 28°
2026-05-06 18:49 53.83447 9.36560 8885 ft 244 kts 52°
2026-05-06 18:49 53.84149 9.39130 8526 ft 242 kts 80°
2026-05-06 18:50 53.84012 9.41947 8114 ft 243 kts 109°
2026-05-06 18:50 53.83070 9.44302 7703 ft 245 kts 138°
2026-05-06 18:50 53.81542 9.45574 7281 ft 249 kts 168°
2026-05-06 18:50 53.79819 9.45873 6886 ft 248 kts 174°
2026-05-06 18:51 53.78101 9.46092 6526 ft 247 kts 174°
2026-05-06 18:51 53.76415 9.46305 6171 ft 245 kts 174°
2026-05-06 18:51 53.74719 9.46511 5792 ft 244 kts 174°
2026-05-06 18:51 53.73030 9.46708 5429 ft 242 kts 174°
2026-05-06 18:52 53.71353 9.46894 5048 ft 241 kts 174°
2026-05-06 18:52 53.69686 9.47066 4711 ft 239 kts 174°
2026-05-06 18:52 53.68027 9.47222 4340 ft 238 kts 174°
2026-05-06 18:52 53.66382 9.47364 4066 ft 234 kts 174°
2026-05-06 18:53 53.64730 9.47500 4006 ft 239 kts 174°
2026-05-06 18:53 53.63071 9.47634 4006 ft 238 kts 174°
2026-05-06 18:53 53.61410 9.47772 4006 ft 239 kts 174°
2026-05-06 18:53 53.59750 9.47912 4007 ft 238 kts 174°
2026-05-06 18:54 53.58094 9.48049 4007 ft 238 kts 174°
2026-05-06 18:54 53.56442 9.48191 4008 ft 238 kts 174°
2026-05-06 18:54 53.54786 9.48329 4009 ft 238 kts 174°
2026-05-06 18:54 53.53128 9.48463 4007 ft 238 kts 174°
2026-05-06 18:55 53.51495 9.48594 4009 ft 238 kts 174°
2026-05-06 18:55 53.49899 9.49089 4007 ft 229 kts 150°
2026-05-06 18:55 53.48534 9.50437 4006 ft 226 kts 144°
2026-05-06 18:55 53.47203 9.51837 4003 ft 225 kts 144°
2026-05-06 18:56 53.45876 9.53232 4007 ft 225 kts 144°
2026-05-06 18:56 53.44725 9.54926 4011 ft 218 kts 118°
2026-05-06 18:56 53.44403 9.57292 4002 ft 205 kts 77°
2026-05-06 18:56 53.44971 9.59386 4000 ft 197 kts 58°
2026-05-06 18:57 53.45728 9.61304 4003 ft 197 kts 56°
2026-05-06 18:57 53.46506 9.63201 4003 ft 197 kts 55°
2026-05-06 18:57 53.47293 9.65085 4004 ft 197 kts 55°
2026-05-06 18:57 53.48086 9.66955 4000 ft 196 kts 54°
2026-05-06 18:58 53.48864 9.68764 3956 ft 185 kts 54°
2026-05-06 18:58 53.49596 9.70452 3895 ft 172 kts 54°
2026-05-06 18:58 53.50272 9.71997 3808 ft 163 kts 54°
2026-05-06 18:58 53.50953 9.73542 3588 ft 163 kts 54°
2026-05-06 18:59 53.51633 9.75061 3368 ft 162 kts 53°
2026-05-06 18:59 53.52306 9.76548 3145 ft 161 kts 53°
2026-05-06 18:59 53.52985 9.78030 2924 ft 162 kts 53°
2026-05-06 18:59 53.53674 9.79518 2700 ft 160 kts 53°
2026-05-06 19:00 53.54363 9.80991 2475 ft 156 kts 53°
2026-05-06 19:00 53.54993 9.82324 2270 ft 139 kts 53°
2026-05-06 19:00 53.55594 9.83593 2077 ft 138 kts 52°
2026-05-06 19:00 53.55985 9.84413 1947 ft 136 kts 52°
2026-05-06 19:01 53.56777 9.86063 1735 ft 133 kts 52°
2026-05-06 19:01 53.57346 9.87241 1538 ft 130 kts 52°
2026-05-06 19:01 53.57889 9.88389 1372 ft 124 kts 52°
2026-05-06 19:01 53.58444 9.89518 1209 ft 126 kts 51°
2026-05-06 19:02 53.59003 9.90651 1033 ft 126 kts 51°
2026-05-06 19:02 53.59564 9.91786 842 ft 125 kts 50°
2026-05-06 19:02 53.60128 9.92927 665 ft 128 kts 50°
2026-05-06 19:02 53.60689 9.94063 485 ft 128 kts 50°
2026-05-06 19:03 53.61263 9.95227 313 ft 130 kts 51°
2026-05-06 19:03 53.61833 9.96381 136 ft 126 kts 51°
2026-05-06 19:03 53.62384 9.97508 51 ft 119 kts 51°
2026-05-06 19:03 53.62838 9.98427 48 ft 80 kts 51°
2026-05-06 19:04 53.63037 9.98826 47 ft 55 kts 49°
2026-05-06 19:04 53.63092 9.99098 48 ft 22 kts 92°
2026-05-06 19:04 53.63089 9.99203 48 ft 0 kts 95°
2026-05-06 19:05 53.63088 9.99226 48 ft 4 kts 95°
2026-05-06 19:05 53.63086 9.99308 47 ft 16 kts 87°
2026-05-06 19:05 53.63153 9.99537 46 ft 24 kts 53°
2026-05-06 19:06 53.63214 9.99654 48 ft 0 kts 50°
2026-05-06 19:07 53.63215 9.99655 48 ft 1 kts 49°
2026-05-06 19:07 53.63233 9.99686 48 ft 0 kts 44°
2026-05-06 19:07 53.63245 9.99710 47 ft 5 kts 56°
2026-05-06 19:07 53.63286 9.99784 46 ft 14 kts 38°
2026-05-06 19:08 53.63370 9.99944 50 ft 16 kts 50°
2026-05-06 19:08 53.63424 10.00105 51 ft 16 kts 102°
2026-05-06 19:08 53.63360 10.00161 48 ft 0 kts 174°
2026-05-06 19:08 53.63332 10.00166 50 ft 9 kts 174°
2026-05-06 19:09 53.63257 10.00178 49 ft 3 kts 161°
2026-05-06 19:09 53.63235 10.00232 49 ft 10 kts 144°
2026-05-06 19:09 53.63204 10.00326 49 ft 0 kts 69°
2026-05-06 19:09 53.63206 10.00357 49 ft 0 kts 88°